TimeCST,TemperatureF,Dew PointF,Humidity,Sea Level PressureIn,VisibilityMPH,Wind Direction,Wind SpeedMPH,Gust SpeedMPH,PrecipitationIn,Events,Conditions,WindDirDegrees,DateUTC
12:53 AM,44.1,42.1,93,30.16,2.5,South,9.2,-,N/A,,Clear,180,2012-11-22 06:53:00
1:53 AM,44.1,42.1,93,30.15,2.5,South,9.2,-,N/A,,Clear,190,2012-11-22 07:53:00
2:04 AM,44.6,42.8,93,30.14,3.0,South,10.4,-,N/A,,Clear,180,2012-11-22 08:04:00
2:53 AM,45.0,42.1,90,30.14,3.0,South,11.5,-,N/A,,Clear,180,2012-11-22 08:53:00
3:41 AM,44.6,41.0,87,30.13,2.5,South,9.2,-,N/A,,Clear,180,2012-11-22 09:41:00
3:50 AM,44.6,42.8,93,30.12,3.0,South,11.5,-,N/A,,Clear,180,2012-11-22 09:50:00
3:53 AM,44.1,42.1,93,30.13,3.0,South,11.5,-,N/A,,Clear,180,2012-11-22 09:53:00
4:02 AM,44.6,42.8,93,30.12,2.5,South,11.5,-,N/A,,Clear,180,2012-11-22 10:02:00
4:09 AM,44.6,42.8,93,30.12,3.0,South,11.5,-,N/A,,Clear,180,2012-11-22 10:09:00
4:53 AM,45.0,42.1,90,30.13,3.0,South,12.7,-,N/A,,Clear,180,2012-11-22 10:53:00
5:53 AM,45.0,42.1,90,30.12,3.0,South,12.7,-,N/A,,Clear,180,2012-11-22 11:53:00
6:53 AM,45.0,42.1,90,30.12,3.0,South,12.7,-,N/A,,Clear,180,2012-11-22 12:53:00
7:06 AM,44.6,41.0,87,30.10,2.5,South,13.8,-,N/A,,Clear,180,2012-11-22 13:06:00
7:53 AM,46.9,44.1,90,30.11,2.5,South,18.4,-,N/A,,Clear,180,2012-11-22 13:53:00
8:03 AM,46.4,44.6,93,30.09,3.0,South,15.0,-,N/A,,Clear,180,2012-11-22 14:03:00
8:53 AM,51.1,46.9,86,30.10,3.0,South,17.3,-,N/A,,Clear,180,2012-11-22 14:53:00
9:53 AM,55.9,48.0,75,30.09,3.0,South,16.1,25.3,N/A,,Haze,180,2012-11-22 15:53:00
10:53 AM,59.0,48.0,67,30.06,6.0,South,24.2,-,N/A,,Haze,190,2012-11-22 16:53:00
11:53 AM,61.0,46.9,60,30.02,7.0,South,19.6,27.6,N/A,,Clear,190,2012-11-22 17:53:00
12:53 PM,61.0,46.0,58,30.00,8.0,South,18.4,-,N/A,,Mostly Cloudy,190,2012-11-22 18:53:00
1:53 PM,61.0,46.0,58,29.97,9.0,South,19.6,26.5,N/A,,Clear,180,2012-11-22 19:53:00
2:53 PM,61.0,46.9,60,29.95,9.0,South,18.4,27.6,N/A,,Clear,180,2012-11-22 20:53:00
3:53 PM,59.0,46.9,64,29.94,10.0,South,18.4,-,N/A,,Clear,170,2012-11-22 21:53:00
4:53 PM,57.0,45.0,64,29.92,10.0,South,23.0,31.1,N/A,,Clear,170,2012-11-22 22:53:00
5:53 PM,55.9,44.1,64,29.93,10.0,South,17.3,25.3,N/A,,Partly Cloudy,180,2012-11-22 23:53:00
6:53 PM,54.0,46.0,75,29.96,5.0,SSW,13.8,-,0.03,Rain-Thunderstorm,Thunderstorms and Rain,200,2012-11-23 00:53:00
7:53 PM,54.0,46.9,77,29.93,10.0,South,17.3,-,0.04,Thunderstorm,Thunderstorm,190,2012-11-23 01:53:00
8:53 PM,54.0,48.0,80,29.94,9.0,SSW,19.6,-,0.00,Rain,Light Rain,200,2012-11-23 02:53:00
9:53 PM,54.0,50.0,86,29.92,8.0,SSW,20.7,28.8,0.02,,Overcast,210,2012-11-23 03:53:00
10:22 PM,53.6,50.0,88,29.93,4.0,SW,18.4,27.6,0.00,Rain,Light Rain,220,2012-11-23 04:22:00
10:53 PM,54.0,51.1,90,29.95,8.0,WSW,20.7,27.6,0.00,,Overcast,240,2012-11-23 04:53:00
11:53 PM,48.9,42.1,77,29.99,10.0,WNW,16.1,23.0,0.01,,Mostly Cloudy,300,2012-11-23 05:53:00